User: anonymous   Login
Location: Unspecified
(0.0000°N, 0.0000°E)
Time: 21:37:16
(UTC+00:00)
Language:

Cosmos 381 - Orbit

View from above orbital plane
View from above orbital plane
View from above satellite
View from above satellite

Ground track
Ground track

The orbit data is extracted from the following two-line orbital elements,

1  4783U 70102A   22229.17671400  .00000021  00000-0  45781-4 0  9997
2  4783  74.0329 174.3693 0030037 142.0964 218.2279 13.74829797593893
Epoch (UTC): 17 August 2022 04:14:28
Eccentricity: 0.0030037
inclination: 74.0329°
perigee height: 960 km
apogee height: 1004 km
right ascension of ascending node: 174.3693°
argument of perigee: 142.0964°
revolutions per day: 13.74829797
mean anomaly at epoch: 218.2279°
orbit number at epoch: 59389

The dashed part of the orbit path shows where the satellite is in the earth's shadow,  

DLR